Flag for Micronesia Weather past 2 weeks in Kolonia, Pohnpei, Micronesia

Now
88 °F

Broken clouds.


Feels Like: 101 °F
Forecast: 78 / 86 °F
Wind: 9 mph from Southwest

Location: Pohnpei

Current Time: Sep 3, 2015 at 4:20:35 PM

Latest Report: Sep 3, 2015 at 2:55 PM


Visibility: 15 mi

Pressure: 29.87 "Hg

Humidity: 71%

Dew point: 78 °F

Location of KoloniaLocation

Historic Weather in Kolonia — Graph

°F

Kolonia temperature yesterday

Maximum temperature yesterday: 84 °F (at 9:53 AM)
Minimum temperature yesterday: 76 °F (at 11:59 AM)
Average temperature yesterday: 78 °F

Past Weeks' High & Low Weather Summary

 TemperatureHumidityPressure
High92 °F (Aug 21, 2:55 PM)100% (Sep 2, 6:01 AM)29.97 "Hg (Sep 2, 6:01 AM)
Low74 °F (Aug 22, 1:53 AM)62% (Aug 21, 3:54 PM)29.75 "Hg (Aug 27, 3:50 PM)
Average81 °F87%29.86 "Hg
* Reported Aug 19 2:55 PM — Sep 3 2:55 PM, Kolonia, Weather by CustomWeather, © 2015

Note: Actual official high and low records may vary slightly from our data, if they occured in-between our weather recording intervals... More about our weather records

Advertising

Kolonia weather history for previous 24 hours

 ConditionsComfort  
Time TempWeatherWind HumidityBarometerVisibility
2:55 PM
Thu, Sep 3
88 °FBroken clouds.9 mph71%29.87 "Hg15 mi
1:52 PM87 °FBroken clouds.14 mph70%29.88 "Hg15 mi
12:50 PM85 °FBroken clouds.7 mph84%29.90 "Hg15 mi
11:50 AM86 °FBroken clouds.7 mph77%29.91 "Hg15 mi
10:50 AM85 °FBroken clouds.9 mph75%29.93 "Hg15 mi
9:50 AM86 °FBroken clouds.7 mph70%29.93 "Hg15 mi
8:55 AM83 °FBroken clouds.9 mph90%29.93 "Hg15 mi
7:53 AM82 °FCloudy.5 mph88%29.92 "Hg15 mi
6:54 AM77 °FMostly cloudy.9 mph92%29.90 "Hg15 mi
5:52 AM78 °FMostly cloudy.6 mph95%29.89 "Hg15 mi
4:52 AM78 °FMostly cloudy.6 mph95%29.88 "Hg15 mi
3:52 AM77 °FSprinkles. Mostly cloudy.9 mph95%29.86 "Hg12 mi
2:54 AM79 °FOvercast.6 mph91%29.86 "Hg15 mi
1:51 AM79 °FOvercast.7 mph91%29.88 "Hg15 mi
12:51 AM78 °FPartly cloudy.6 mph90%29.90 "Hg15 mi
11:55 PM
Wed, Sep 2
79 °FMostly cloudy.3 mph90%29.91 "Hg15 mi
10:52 PM79 °FMostly cloudy.3 mph87%29.93 "Hg15 mi
9:56 PM79 °FMostly cloudy.5 mph87%29.78 "Hg15 mi
8:55 PM79 °FMostly cloudy.10 mph87%29.90 "Hg15 mi
7:57 PM79 °FMostly cloudy.9 mph88%29.89 "Hg15 mi
6:55 PM78 °FMostly cloudy.9 mph89%29.86 "Hg15 mi
5:52 PM78 °FMostly cloudy.6 mph90%29.85 "Hg15 mi
4:50 PM78 °FSprinkles. Mostly cloudy.10 mph92%29.87 "Hg15 mi
Weather by CustomWeather, © 2015

See weather overviewHow to use our weather pages